Time+07,TemperatureF,Dew PointF,Humidity,Sea Level PressureIn,VisibilityMPH,Wind Direction,Wind SpeedMPH,Gust SpeedMPH,PrecipitationIn,Events,Conditions,WindDirDegrees,DateUTC
12:00 AM,82.4,73.4,74,29.80,6.2,West,11.5,-,N/A,,Scattered Clouds,270,2013-09-18 17:00:00
12:30 AM,82.4,75.2,79,29.80,6.2,West,11.5,-,N/A,,Scattered Clouds,280,2013-09-18 17:30:00
1:00 AM,83,76,75,29.75,6,Calm,Calm,,,,Scattered Clouds,,2013-09-18 18:00:00
1:00 AM,82.4,75.2,79,29.77,6.2,West,9.2,-,N/A,,Scattered Clouds,260,2013-09-18 18:00:00
1:30 AM,82.4,73.4,74,29.77,6.2,West,12.7,-,N/A,,Scattered Clouds,260,2013-09-18 18:30:00
2:30 AM,82.4,73.4,74,29.77,6.2,West,15.0,-,N/A,,Scattered Clouds,270,2013-09-18 19:30:00
3:00 AM,82.4,73.4,74,29.74,6.2,West,13.8,-,N/A,,Scattered Clouds,260,2013-09-18 20:00:00
3:30 AM,82.4,73.4,74,29.74,6.2,West,11.5,-,N/A,,Mostly Cloudy,260,2013-09-18 20:30:00
4:00 AM,82.4,73.4,74,29.74,6.2,West,15.0,-,N/A,,Mostly Cloudy,260,2013-09-18 21:00:00
4:30 AM,82.4,73.4,74,29.74,6.2,West,15.0,-,N/A,,Mostly Cloudy,270,2013-09-18 21:30:00
5:00 AM,82.4,73.4,74,29.74,6.2,WSW,11.5,-,N/A,,Mostly Cloudy,250,2013-09-18 22:00:00
5:30 AM,82.4,73.4,74,29.74,6.2,West,11.5,-,N/A,,Mostly Cloudy,260,2013-09-18 22:30:00
6:00 AM,82.4,73.4,74,29.74,6.2,WSW,16.1,-,N/A,,Mostly Cloudy,250,2013-09-18 23:00:00
6:30 AM,82.4,73.4,74,29.77,6.2,West,15.0,-,N/A,,Mostly Cloudy,260,2013-09-18 23:30:00
7:00 AM,83,78,79,29.74,6,West,8.1,,,,Scattered Clouds,270,2013-09-19 00:00:00
7:00 AM,84.2,73.4,70,29.77,6.2,West,16.1,-,N/A,,Mostly Cloudy,260,2013-09-19 00:00:00
7:30 AM,84.2,73.4,70,29.80,6.2,West,13.8,-,N/A,,Mostly Cloudy,260,2013-09-19 00:30:00
8:00 AM,84.2,73.4,70,29.80,6.2,WSW,13.8,-,N/A,,Mostly Cloudy,250,2013-09-19 01:00:00
8:30 AM,84.2,73.4,70,29.80,6.2,West,13.8,-,N/A,,Mostly Cloudy,260,2013-09-19 01:30:00
9:00 AM,84.2,73.4,70,29.80,6.2,West,11.5,-,N/A,,Mostly Cloudy,260,2013-09-19 02:00:00
9:30 AM,86.0,73.4,66,29.80,6.2,West,15.0,-,N/A,,Mostly Cloudy,260,2013-09-19 02:30:00
10:00 AM,86.0,73.4,66,29.83,6.2,West,17.3,-,N/A,,Mostly Cloudy,260,2013-09-19 03:00:00
10:30 AM,86.0,73.4,66,29.83,6.2,West,13.8,-,N/A,,Mostly Cloudy,260,2013-09-19 03:30:00
11:00 AM,84.2,73.4,70,29.83,6.2,West,11.5,-,N/A,,Mostly Cloudy,260,2013-09-19 04:00:00
11:30 AM,86.0,73.4,66,29.83,6.2,WSW,10.4,-,N/A,,Mostly Cloudy,250,2013-09-19 04:30:00
12:00 PM,86.0,73.4,66,29.80,6.2,West,11.5,-,N/A,,Mostly Cloudy,260,2013-09-19 05:00:00
12:30 PM,86.0,73.4,66,29.80,6.2,WSW,11.5,-,N/A,,Mostly Cloudy,250,2013-09-19 05:30:00
1:00 PM,88,75,58,29.75,6,West,6.9,,,,Scattered Clouds,260,2013-09-19 06:00:00
1:00 PM,87.8,73.4,62,29.77,6.2,West,16.1,-,N/A,,Mostly Cloudy,270,2013-09-19 06:00:00
1:30 PM,86.0,75.2,70,29.77,6.2,West,15.0,-,N/A,,Mostly Cloudy,260,2013-09-19 06:30:00
2:00 PM,87.8,75.2,66,29.74,5.6,West,15.0,-,N/A,,Mostly Cloudy,270,2013-09-19 07:00:00
2:30 PM,86.0,75.2,70,29.74,5.6,West,15.0,-,N/A,,Mostly Cloudy,270,2013-09-19 07:30:00
3:00 PM,86.0,73.4,66,29.71,5.6,West,13.8,-,N/A,,Mostly Cloudy,260,2013-09-19 08:00:00
3:30 PM,86.0,75.2,70,29.71,5.6,West,12.7,-,N/A,,Mostly Cloudy,260,2013-09-19 08:30:00
4:00 PM,84.2,73.4,70,29.71,5.6,WSW,9.2,-,N/A,,Mostly Cloudy,250,2013-09-19 09:00:00
4:30 PM,84.2,73.4,70,29.71,5.6,WSW,10.4,-,N/A,,Mostly Cloudy,250,2013-09-19 09:30:00
5:00 PM,84.2,73.4,70,29.71,5.6,WSW,12.7,-,N/A,,Mostly Cloudy,250,2013-09-19 10:00:00
5:30 PM,84.2,73.4,70,29.71,5.0,WSW,8.1,-,N/A,,Mostly Cloudy,250,2013-09-19 10:30:00
6:00 PM,82.4,73.4,74,29.71,5.6,Variable,9.2,-,N/A,,Mostly Cloudy,0,2013-09-19 11:00:00
6:30 PM,84.2,73.4,70,29.74,5.6,WSW,11.5,-,N/A,,Mostly Cloudy,250,2013-09-19 11:30:00
7:00 PM,82,76,77,29.71,6,West,5.8,,,,Scattered Clouds,260,2013-09-19 12:00:00
7:00 PM,82.4,73.4,74,29.74,5.6,SW,5.8,-,N/A,,Mostly Cloudy,230,2013-09-19 12:00:00
7:30 PM,82.4,73.4,74,29.77,5.6,West,11.5,23.0,N/A,,Mostly Cloudy,260,2013-09-19 12:30:00
8:00 PM,82.4,73.4,74,29.77,5.6,WSW,8.1,-,N/A,,Mostly Cloudy,240,2013-09-19 13:00:00
8:30 PM,82.4,75.2,79,29.77,5.0,WSW,12.7,-,N/A,,Mostly Cloudy,250,2013-09-19 13:30:00
9:00 PM,82.4,75.2,79,29.80,5.0,WSW,10.4,-,N/A,,Mostly Cloudy,250,2013-09-19 14:00:00
9:30 PM,84.2,75.2,74,29.80,5.0,West,17.3,-,N/A,,Mostly Cloudy,260,2013-09-19 14:30:00
10:00 PM,84.2,75.2,74,29.80,5.0,West,11.5,-,N/A,,Mostly Cloudy,260,2013-09-19 15:00:00
10:30 PM,84.2,75.2,74,29.83,5.0,WSW,11.5,-,N/A,,Mostly Cloudy,250,2013-09-19 15:30:00
11:00 PM,84.2,75.2,74,29.80,5.0,West,12.7,-,N/A,,Mostly Cloudy,260,2013-09-19 16:00:00
11:30 PM,84.2,75.2,74,29.80,5.0,West,16.1,-,N/A,,Mostly Cloudy,260,2013-09-19 16:30:00